Regional Weather Roundup
Issued by NWS Portland, ME

Current Version | Previous Version | Text Only | Print | Product List | Glossary Off
Versions: 1 2 3 4 5 6 7 8 9 10 11 12 13 14 15 16 17 18 19 20 21 22 23 24 25 26 27 28 29 30 31 32 33 34 35 36 37 38 39 40 41 42 43 44 45 46 47 48 49 50
000 ASUS41 KGYX 220905 RWRGYX WEATHER ROUNDUP FOR MAINE AND NEW HAMPSHIRE NATIONAL WEATHER SERVICE GRAY ME 400 AM EST WED NOV 22 2017 MEZ002-005-006-010-012-015-018-020-021-024-026-027-029-221000- MAINE CITY SKY/WX TMP DP RH WIND PRES REMARKS PORTLAND CLOUDY 39 34 82 CALM 29.99R SANFORD N/A 30 29 96 CALM 29.98S BAR HARBOR PTCLDY 45 41 86 SW3 29.99 WISCASSET CLOUDY 38 36 92 CALM 29.99S ROCKLAND CLOUDY 48 41 76 SW8 29.98S FRYEBURG PTCLDY 28 27 96 CALM 29.96R LEWISTONAUBURN CLOUDY 37 33 85 SE3 29.97R AUGUSTA CLOUDY 38 34 85 S5 29.96S WATERVILLE CLOUDY 37 34 89 SW3 29.93 BANGOR CLOUDY 39 34 82 S6 29.97S GREENVILLE N/A 32 27 81 SE8 29.88F MILLINOCKET CLOUDY 24 23 96 W3 29.96R HOULTON CLEAR 38 36 92 S5 29.93S PRESQUE ISLE PTCLDY 26 25 96 CALM 29.93R FRENCHVILLE CLOUDY 27 24 89 SE6 29.88S CARIBOU CLOUDY 30 27 88 CALM 29.90F $$ NHZ002-005-008-009-011-012-014-221000- NEW HAMPSHIRE CITY SKY/WX TMP DP RH WIND PRES REMARKS PORTSMOUTH CLOUDY 44 38 77 CALM 29.97S ROCHESTER PTCLDY 38 36 92 CALM 29.98R NASHUA CLOUDY 32 31 96 CALM 29.98F MANCHESTER CLOUDY 38 34 85 CALM 29.96F CONCORD MOCLDY 29 26 89 CALM 29.97F PLYMOUTH FAIR 24 23 98 CALM 29.97F BERLIN CLEAR 25 23 92 CALM 29.90F WHITEFIELD PTCLDY 23 21 92 CALM 29.90F JAFFREY CLOUDY 34 33 96 CALM 29.96F KEENE MOCLDY 30 28 92 CALM 29.97S LEBANON CLEAR 27 25 92 CALM 29.94R MT WASHINGTON PTCLDY 25 19 80 W39 N/A WCI 6 $$ VTZ005-007-008-221000- VERMONT CITY SKY/WX TMP DP RH WIND PRES REMARKS MONTPELIER PTCLDY 33 27 78 CALM 29.93R BURLINGTON CLOUDY 47 28 47 S9 29.88R $$ MAZ007-012-024-CTZ003-RIZ002-NYZ038-NYZ072-221000- SOUTHERN NEW ENGLAND AND NY CITY SKY/WX TMP DP RH WIND PRES REMARKS BOSTON CLOUDY 48 44 86 S10 30.01S WORCESTER MOCLDY 47 38 71 S8 29.97S NANTUCKET CLOUDY 56 54 93 S15 30.04F PROVIDENCE CLOUDY 51 51 100 S5 30.01F HARTFORD CLOUDY 41 38 89 CALM 29.97F ALBANY CLOUDY 45 31 58 S7 29.93F NEW YORK CITY CLOUDY 52 43 71 MISG 29.94F $$ ANZ081-ANZ082-ANZ150-NHZ014-MEZ023>029-221000- COASTAL MARINE OBSERVATIONS STATION/POSITION TIME TEMP WIND PRES WAVE AIR SEA DIR/SP/G HT/PER (UTC) (F) (DEG/KT/KT) (MB) (FT/S) MOUNT DESERT ROC 0900 52 210/ 21/ 23 1015.7S MATINICUS ROCK 0800 52 230/ 21/ 24 1015.1S ISLE OF SHOALS 0800 50 200/ 20/ 21 1015.0F JEFFREYS LEDGE 0836 49 N/A 3/ 5 CASHES LEDGE BUO 0750 52 51 1016.0 5/ 6 GEORGES BANK BUO 0750 58 54 1021.7 6/ 7 $$ .............KEY.............. WCI - WIND CHILL TC - TEMPERATURE IN CELSIUS VSB - VISIBILITY IN MILES HX - HEAT INDEX FAIR- INDICATES FEW OR NO CLOUDS BELOW 12,000 FT, WITH NO SIGNIFICANT WEATHER AND/OR OBSTRUCTIONS TO VISIBILITY.

USA.gov is the U.S. government's official web portal to all federal, state and local government web resources and services.